Showing default

FALCONSAT-6, 43815

Orbit data source: Space-Track

FALCONSAT-6, 43815 is a payload satellite owned by USAF SMC (US) in SSO that was launched on Mon, 03 Dec 2018 UTC via an FALCON 9 launch vehicle from the Air Force Western Test Range (AFWTR). Payload-class satellites include a variety of spacecraft equipped with specific instruments for various scientific and technological missions. These include communications satellites like Starlink; space stations such as the ISS; scientific satellites like the Hubble; Earth observation satellites from companies like Planet Labs, Umbra, and HawkEye 360; GPS; miniature CubeSats for education and research; and military/defense satellites.

Loading next visibility...
Identifier
43815, 2018-099BK
Orbit
SSO
Country
Flag of USUS
Related business
Manufacturer
USAF Academy
Mission
Operational Defense Technology
Bus & Motor
FALCONSAT, Unknown motor
Mass
181 kg wet, 181 kg dry
Launch date (UTC)
2018-12-03 (7 years ago)
Launch vehicle
FALCON 9
Launch site
Air Force Western Test Range (AFWTR)
Object type
Payload
Rocket body
Debris
Shape & HBR
Box + 1 Ant, 2.0 m
Radar Cross Section
0.551 m², Medium (>0.1 m² and < 1m²)

Expand to show TLE details & history
Last TLE update: 9 hours ago

TLE from 9 hours ago
0 FALCONSAT-6
1 43815U 18099BK  25259.15079457  .00004078  00000-0  17052-3 0  9996
2 43815  97.4110 333.1519 0017166 185.6650 204.4514 15.24031100371943
Epoch: 2025-09-16T03:37Z
TLE epoch observation values (Epoch: 2025-09-16T03:37:08.65Z)
Latitude
29.81157°
Longitude
-80.7299°
Altitude
508.305 km
Speed
7.607 km/s
True Right ascension
21h 55m 36s
True Declination
29° 39' 29"
Sunlit
Object was in full shadow at epoch
Visualization orbit readout
Latitude
Unknown
Longitude
Unknown
Altitude
Unknown
Speed
Unknown
Apparent Right ascension
Unknown
Apparent Declination
Unknown
Sunlit
N/A
Visualization observer readout
Local Sidereal Time
05:37:32
Azimuth
Unknown
Elevation
Unknown
Doppler factor
Unknown
Orbital elements
Apogee altitude
502.448 km
Perigee altitude
478.866 km
Semi-major axis
6,868.794 km
Eccentricity
0.00172
Inclination
97.411°
RAAN
333.1519°
Arg. of periapsis
185.665°
True anomaly
204.37014°
Mean anomaly
204.4514°
Eccentric anomaly
204.41075°
Mean motion
3.81261 °/min
Orbital period
94.42 mins
BSTAR
0.00017052
Loading maneuver chart data...
Computing Atmospheric mass density...
Loading historical data...
Loading historical data...
Loading historical data...
Loading historical data...
Loading historical data...
Loading historical data...
Loading historical data...

Documentation

Showing up to 5 results
|